Regional Weather Roundup
Issued by NWS

Home | Current Version | Previous Version | Graphics & Text | Print | Product List | Glossary Off
Versions: 1 2 3 4 5 6 7 8 9 10 11 12 13 14 15 16 17 18 19 20 21 22 23 24 25 26 27 28 29 30 31 32 33 34 35 36 37 38 39 40 41 42 43 44 45 46 47 48 49 50

000
ASUS43 KFSD 222010
RWRSD

WEATHER ROUNDUP FOR SOUTH DAKOTA
NATIONAL WEATHER SERVICE SIOUX FALLS SD
200 PM CST SAT NOV 22 2014

NOTE: "FAIR" INDICATES FEW OR NO CLOUDS BELOW 12,000 FEET WITH NO
SIGNIFICANT WEATHER AND/OR OBSTRUCTIONS TO VISIBILITY.


SDZ001>005-009-010-012>017-222100-
NORTHWEST AND NORTH CENTRAL SOUTH DAKOTA

CITY           SKY/WX    TMP DP  RH WIND       PRES   REMARKS
BUFFALO          N/A     46  30  53 W12       29.32F
FAITH            N/A     44  29  55 S8        29.36F
MOBRIDGE       MOSUNNY   43  30  60 S8        29.35F
$$

SDZ012>016-024>037-041>051-057-063-072>074-222100-
SOUTHWEST AND SOUTH CENTRAL SOUTH DAKOTA

CITY           SKY/WX    TMP DP  RH WIND       PRES   REMARKS
RAPID CTY ARPT CLOUDY    56  26  31 W12       29.40F
PIERRE         SUNNY     43  31  62 N3        29.39F
CUSTER         CLOUDY    42  25  50 W18G26    29.48S
ELLSWORTH AFB  CLOUDY    56  28  34 W7        29.39F
PHILIP         PTSUNNY   64  30  27 W10       29.39F
PINE RIDGE     PTSUNNY   48  29  47 NW9       29.49F
SPEARFISH      FAIR      50  27  40 SW18G31   29.41F
WINNER         FAIR      59  29  31 SW20      29.43F
$$

SDZ004>011-016>023-039-040-222100-
NORTHEAST SOUTH DAKOTA

CITY           SKY/WX    TMP DP  RH WIND       PRES   REMARKS
ABERDEEN       CLOUDY    38  30  73 S16       29.43F
WATERTOWN      PTSUNNY   34  30  85 SE18      29.47F WCI  23
SISSETON         N/A     38  31  76 SE12      29.47F
$$

SDZ017-020-022-023-036>040-048>070-222100-
SOUTHEAST SOUTH DAKOTA

CITY           SKY/WX    TMP DP  RH WIND       PRES   REMARKS
SIOUX FALLS    PTSUNNY   42  35  76 S10       29.58F
HURON          PTSUNNY   40  32  73 S14       29.46F
CHAMBERLAIN    MOSUNNY   54  32  42 S8        29.43F
MITCHELL       CLOUDY    47  35  63 SE16      29.50F
YANKTON        MOSUNNY   52  34  50 S15       29.56F
$$

ABBREVIATIONS USED IN REMARKS
   TC - TEMPERATURE IN CELSIUS
  WCI - WIND CHILL INDEX
   HX - HEAT INDEX
  VSB - VISIBILITY



USA.gov is the U.S. government's official web portal to all federal, state and local government web resources and services.